Location: Barrio La Estaci�n
(40.5892°N, 4.3617°W)
Time: 08:17:41
(UTC+00:00)

Daily predictions for brighter satellites

Satellite Brightness Start Highest point End
(mag) Time Altitude Azimuth Time Altitude Azimuth Time Altitude Azimuth
Cosmos 1953 2.7 17:51:25 10° SSE 17:55:15 43° E 17:59:06 10° NNE
Cosmos 2369 3.9 17:51:27 10° SSW 17:57:05 79° WNW 18:02:48 10° NNE
CZ-4C R/B 4.0 17:57:21 10° NE 18:00:07 23° E 18:02:48 10° SSE
ARGOS 3.8 17:56:13 10° SE 18:00:57 32° ENE 18:05:43 10° N
Cosmos 1980 Rocket 2.2 17:55:54 10° SSW 18:01:33 87° ESE 18:07:16 10° NNE
Genesis I 3.6 17:57:39 10° NW 18:01:45 71° WSW 18:05:47 10° SSE
Cosmos 2263 Rocket 2.8 17:58:23 10° N 18:03:28 35° ENE 18:08:31 10° SE
CZ-2D R/B 3.2 18:00:37 10° SSE 18:04:24 64° ENE 18:08:14 10° N
H-2A R/B 2.2 18:00:18 10° SSE 18:05:32 58° ENE 18:10:53 10° N
CZ-4 R/B 2.9 18:04:03 10° ESE 18:06:35 17° ENE 18:09:10 10° NNE
Okean 1 Rocket 4.0 18:06:24 10° SSW 18:10:37 51° W 18:14:52 10° N
Cosmos 389 Rocket 3.4 18:12:19 10° SSW 18:15:35 50° W 18:18:56 10° N
Cosmos 1697 Rocket 4.3 18:13:23 10° SW 18:18:34 36° WNW 18:23:46 10° N
Iridium 4 Rocket 3.8 18:15:47 10° NNE 18:20:01 36° E 18:24:34 10° SSE
Cosmos 1727 Rocket 4.3 18:15:59 10° NNW 18:22:10 71° W 18:28:16 10° S
COSMO-SKYMED 1 2.5 18:18:07 10° NNE 18:22:28 74° E 18:26:48 10° S
Cosmos 1908 3.5 18:19:34 10° SSW 18:23:26 70° W 18:27:19 10° N
CZ-2C R/B 2.7 18:18:08 10° NNE 18:23:41 62° E 18:29:08 10° S
deb Chang Zheng 4 3.7 18:23:12 10° S 18:27:22 74° WSW 18:31:36 10° NNW
X-37B 1.7 18:24:40 10° WNW 18:27:37 34° N 18:29:33 18° NE
Landsat 5 3.5 18:23:32 10° NNE 18:27:57 78° ESE 18:32:27 10° S
Cosmos 1892 Rocket 3.5 18:27:54 10° N 18:32:23 87° ENE 18:36:48 10° S
NOSS 2-3 (E) 3.9 18:30:37 10° S 18:34:15 37° ESE 18:37:00 17° ENE
Cosmos 1269 Rocket 4.1 18:30:51 10° NNW 18:36:05 58° ENE 18:41:16 10° SSE
Cosmos 1844 Rocket 4.2 18:33:58 10° NNE 18:37:15 16° NE 18:38:02 15° ENE
USA 229 DEB 4.3 18:33:01 10° SSE 18:38:17 29° ESE 18:42:06 17° ENE
USA 229 4.3 18:33:09 10° SSE 18:38:24 29° ESE 18:42:07 17° ENE
Cosmos 2278 4.2 18:33:41 10° SW 18:39:17 62° WNW 18:44:57 10° NNE
Feng Yun 1-1 Rocket 4.3 18:34:30 10° SSE 18:39:52 57° ENE 18:45:25 10° N
Delta 2 Rocket 4.3 18:40:48 10° SW 18:43:33 23° SSE 18:44:31 20° SE
IRAS Rocket 4.2 18:40:52 10° NNE 18:46:25 66° ESE 18:51:52 10° S
NOSS 8 (E) 4.2 18:45:13 10° SSW 18:48:58 83° SE 18:50:35 27° NE
Cosmos 371 Rocket 3.2 18:44:36 10° S 18:49:25 71° ESE 18:54:18 10° NNE
SJ-11-01 4.3 18:46:41 10° SSE 18:51:21 83° WSW 18:56:05 10° NNW
Cosmos 1605 Rocket 4.1 18:45:32 10° SSE 18:51:31 51° E 18:57:37 10° NNE
Spot 2 3.8 18:47:34 10° SSE 18:51:36 71° ENE 18:55:51 10° N
IRS-1C Rocket 4.4 18:47:21 10° SE 18:52:14 41° ENE 18:57:09 10° N
Meteor 1-4 Rocket 3.6 18:49:43 10° SSE 18:51:41 26° SE 18:51:41 26° SE
SL-16 R/B 2.2 18:48:29 10° S 18:54:03 63° ESE 18:59:40 10° NNE
Lacrosse 4 Rocket 2.9 18:51:27 10° N 18:54:19 21° NE 18:54:19 21° NE
Cosmos 489 Rocket 4.4 18:50:08 10° NNW 18:56:22 89° W 19:02:35 10° SSE
Cosmos 1535 Rocket 4.4 18:51:08 10° S 18:57:22 80° E 19:03:43 10° N
Cosmos 1626 Rocket 3.6 18:54:13 10° N 18:58:27 53° E 19:02:15 12° SSE
CZ-2C R/B 1.9 18:57:25 10° WSW 19:00:34 31° S 19:01:12 28° SSE
NOSS 3-1 (A) 3.5 18:55:52 10° S 19:00:36 39° ESE 19:02:24 31° ENE
OE (NEXTSAT) 4.1 18:59:03 10° WSW 19:02:28 75° SSE 19:02:53 63° E
Cosmos 1300 2.8 18:59:00 10° SSW 19:02:47 76° W 19:06:36 10° N
Tiangong 0.9 19:03:29 10° W 19:06:39 90° N 19:06:41 87° ENE
Cosmos 2322 Rocket 2.1 19:03:38 10° S 19:09:09 63° ESE 19:14:13 12° NNE
ATLAS 5 CENTAUR R/B 3.5 19:06:24 10° W 19:09:33 23° NW 19:13:01 10° NNE
DMSP B5D1-3 4.4 19:05:17 10° NNE 19:10:26 75° ESE 19:15:34 10° S
Meteor 2-10 Rocket 3.6 19:05:16 10° S 19:10:49 61° E 19:16:12 10° NNE
HJ-1C 3.7 19:12:35 52° N 19:12:35 52° N 19:15:08 10° N
SL-8 R/B 4.5 19:07:40 10° W 19:12:17 46° NNW 19:14:17 29° NE
Meteor 1-11 4.1 19:08:56 10° N 19:14:33 89° W 19:20:12 10° S
YAOGAN 1 2.6 19:11:39 10° S 19:15:58 81° W 19:20:18 10° NNW
NOSS 2-3 (D) 3.5 19:17:27 10° SW 19:21:28 79° NW 19:22:51 42° NNE
Cosmos 2360 Rocket 2.3 19:16:18 10° S 19:21:39 47° ESE 19:21:41 47° ESE
Gbstr 26 Del rocket 4.5 19:14:27 10° NW 19:21:51 80° SW 19:26:32 28° SE
H-2A R/B 2.0 19:21:12 10° N 19:25:20 79° WNW 19:29:30 10° SSW
SL-08 RB Rocket 4.4 19:22:19 10° S 19:26:44 53° W 19:31:13 10° NNW
Okean O Rocket 3.8 19:23:09 10° SSW 19:26:45 25° W 19:30:23 10° NW
NOSS 3-1 (C) 3.3 19:22:02 10° SW 19:27:10 70° NW 19:31:34 18° NNE
H-2A R/B 3.5 19:23:15 10° S 19:27:28 47° W 19:31:34 10° NNW
Cosmos 44 3.7 19:25:54 10° SSW 19:30:33 51° SE 19:30:33 51° SE
Cosmos 2344 4.4 19:23:08 10° NNW 19:32:21 61° NE 19:38:08 34° ESE
NOSS 2-3 (C) 4.0 19:30:17 10° SW 19:34:12 55° NW 19:35:24 40° N
CZ-4 R/B 2.7 19:37:32 10° SSW 19:41:14 38° W 19:45:02 10° NNW
In-Cosmos 22 Rocket 3.9 19:36:52 10° N 19:42:13 84° E 19:42:41 74° SSE
Okean-O 2.7 19:42:51 75° WNW 19:42:51 75° WNW 19:47:06 10° NNW
Cosmos 2263 Rocket 3.8 19:42:24 10° NW 19:47:17 32° WSW 19:52:09 10° SSW
CSL-04 Debris 4.1 19:47:22 63° S 19:48:17 86° WSW 19:53:43 10° NNW
MetOp-A 4.2 19:49:17 50° S 19:50:42 77° WSW 19:56:05 10° NNW
Cosmos 839 Rocket 4.1 19:46:35 10° NNW 19:54:01 88° WSW 19:55:15 62° SSE
CZ-3 Stage 3 4.2 19:51:57 10° W 20:02:10 29° SSW 20:03:03 28° SSW
CSL-04 Rocket 3.9 20:03:54 68° SW 20:04:14 70° WSW 20:09:48 10° NNW
X-37B 4.0 20:01:29 10° WNW 20:01:50 12° WNW 20:01:50 12° WNW
Milstar 3 Cent rocket 4.4 19:59:06 10° SSW 20:05:51 34° SSE 20:05:51 34° SSE
Cosmos 1844 Rocket 3.7 20:16:17 10° NNW 20:19:43 39° NNW 20:19:43 39° NNW
USA 229 DEB 4.2 20:22:36 10° SW 20:28:47 53° NW 20:29:38 49° NNW
USA 229 4.1 20:22:41 10° SW 20:28:53 53° NW 20:29:39 50° NNW
Lacrosse 4 Rocket 4.1 20:29:29 10° NW 20:30:37 17° NW 20:30:37 17° NW
SL-16 R/B 4.5 20:34:28 10° W 20:38:38 21° NW 20:42:49 10° N
Cosmos 2322 Rocket 4.4 20:49:35 10° W 20:53:39 20° NW 20:56:08 16° NNW
Cosmos 2360 Rocket 4.4 21:01:12 10° WSW 21:03:35 20° W 21:03:35 20° W
